This is the latest recevied weather packets stored in our database for station/object PA3EUZ. If no packets are shown the sender has not sent any weather packets the latest 10 day(s).
| Time | Temp. | Humidity | Pressure | Rain* | Wind** | Luminosity | Snow |
|---|---|---|---|---|---|---|---|
| 1778154316 | 15.56° C | 56% | 1016.2 hPa | 0 mm | - | 310 W/m² | - |
| 1778148016 | 16.11° C | 57% | 1016.3 hPa | 0 mm | - | 165 W/m² | - |
| 1778130018 | 7.78° C | 88% | 1014.9 hPa | 0 mm | - | 33 W/m² | - |
| 1778127318 | 8.33° C | 89% | 1014.4 hPa | 0 mm | - | 2 W/m² | - |
| 1778121918 | 8.89° C | 86% | 1014 hPa | 0 mm | - | 0 W/m² | - |
| 1778119218 | 9.44° C | 83% | 1013.7 hPa | 0 mm | - | 0 W/m² | - |
| 1778114718 | 10° C | 81% | 1013.4 hPa | 0 mm | - | 0 W/m² | - |
| 1778113818 | 10° C | 80% | 1013.4 hPa | 0 mm | - | 0 W/m² | - |
| 1778112918 | 10° C | 80% | 1013.3 hPa | 0 mm | - | 0 W/m² | - |
| 1778106618 | 10.56° C | 78% | 1012.9 hPa | 0 mm | - | 0 W/m² | - |
| 1778105738 | 11.11° C | 77% | 1012.8 hPa | 0 mm | - | 0 W/m² | - |
| 1778104818 | 11.11° C | 76% | 1012.8 hPa | 0 mm | - | 0 W/m² | - |
| 1778103917 | 11.11° C | 75% | 1012.7 hPa | 0 mm | - | 0 W/m² | - |
| 1778101237 | 11.67° C | 70% | 1012.4 hPa | 0 mm | - | 0 W/m² | - |
| 1778094957 | 12.22° C | 64% | 1011.6 hPa | 0 mm | - | 0 W/m² | - |
| 1778088636 | 13.33° C | 61% | 1010.4 hPa | 0 mm | - | 46 W/m² | - |
| 1778085916 | 14.44° C | 56% | 1010 hPa | 0 mm | - | 190 W/m² | - |
| 1778085016 | 15° C | 53% | 1009.9 hPa | 0 mm | - | 359 W/m² | - |
| 1778081416 | 14.44° C | 57% | 1009.8 hPa | 0 mm | - | 139 W/m² | - |
| 1778079637 | 15.56° C | 58% | 1009.7 hPa | 0 mm | - | 197 W/m² | - |
| 1778078716 | 15.56° C | 59% | 1009.5 hPa | 0 mm | - | 349 W/m² | - |
| 1778065216 | 14.44° C | 66% | 1009.2 hPa | 0 mm | - | 170 W/m² | - |
| 1778063416 | 14.44° C | 66% | 1009.2 hPa | 0 mm | - | 405 W/m² | - |
| 1778060718 | 13.33° C | 76% | 1009.1 hPa | 0 mm | - | 244 W/m² | - |
| 1778054418 | 11.67° C | 87% | 1008.7 hPa | 0 mm | - | 203 W/m² | - |
* Rain latest hour (hover to see other rain measurements)
** Current wind speed in m/s (hover to see current wind gust speed)